When you browse on this site, cookies collect data to enhance your experience and personalize the content and advertising you see.
Visit our Privacy Policy to learn more. By continuing to use the site, you agree to this use of cookies and data.
  • In Czech Republic
  • List of Countries
  • For 7 days
  • Water Temperature
  • Weather Map
  • Weather Widgets
  • user-avatar
    Login

    Hourly Weather La Esperanza

    Today, 23 October, Wednesday

    Time Temperature Precipitation Wind Pressure Humidity
    00:00 +14°C° 0.4 mm 1 mps 615 mmHg 95%
    01:00 +14°C° 0 mm 1 mps 615 mmHg 95%
    02:00 +13°C° 0 mm 0 mps 614 mmHg 95%
    03:00 +13°C° 0 mm 0 mps 614 mmHg 94%
    04:00 +13°C° 0 mm 0 mps 614 mmHg 94%
    05:00 +13°C° 0 mm 0 mps 614 mmHg 94%
    06:00 +13°C° 0 mm 0 mps 615 mmHg 94%
    07:00 +15°C° 0.1 mm 0 mps 616 mmHg 88%
    08:00 +19°C° 0.1 mm 1 mps 617 mmHg 82%
    09:00 +21°C° 0.1 mm 1 mps 618 mmHg 76%
    10:00 +22°C° 1 mm 1 mps 618 mmHg 76%
    11:00 +22°C° 1 mm 1 mps 618 mmHg 76%
    12:00 +23°C° 1 mm 1 mps 617 mmHg 76%
    13:00 +22°C° 2.1 mm 1 mps 617 mmHg 80%
    14:00 +21°C° 2.1 mm 1 mps 616 mmHg 85%
    15:00 +20°C° 2.1 mm 1 mps 615 mmHg 89%
    16:00 +19°C° 1.4 mm 1 mps 615 mmHg 91%
    17:00 +18°C° 1.4 mm 1 mps 615 mmHg 94%
    18:00 +16°C° 1.4 mm 1 mps 614 mmHg 96%
    19:00 +16°C° 0.6 mm 1 mps 615 mmHg 96%
    20:00 +16°C° 0.6 mm 1 mps 615 mmHg 96%
    21:00 +15°C° 0.6 mm 1 mps 616 mmHg 95%
    22:00 +15°C° 1.1 mm 1 mps 616 mmHg 96%
    23:00 +15°C° 1.1 mm 1 mps 615 mmHg 96%

    Tomorrow, 24 October, Thursday

    Time Temperature Precipitation Wind Pressure Humidity
    00:00 +15°C° 1.1 mm 1 mps 615 mmHg 97%
    01:00 +15°C° 1.1 mm 1 mps 615 mmHg 97%
    02:00 +15°C° 1.1 mm 1 mps 615 mmHg 96%
    03:00 +15°C° 1.1 mm 1 mps 614 mmHg 96%
    04:00 +15°C° 0.1 mm 1 mps 615 mmHg 95%
    05:00 +15°C° 0.1 mm 1 mps 615 mmHg 94%
    06:00 +14°C° 0.1 mm 1 mps 615 mmHg 92%
    07:00 +15°C° 0 mm 1 mps 616 mmHg 90%
    08:00 +16°C° 0 mm 1 mps 616 mmHg 87%
    09:00 +17°C° 0 mm 0 mps 617 mmHg 84%
    10:00 +20°C° 0 mm 1 mps 617 mmHg 76%
    11:00 +22°C° 0 mm 1 mps 617 mmHg 68%
    12:00 +23°C° 0 mm 1 mps 617 mmHg 60%
    13:00 +23°C° 0.8 mm 1 mps 617 mmHg 67%
    14:00 +22°C° 0.8 mm 1 mps 616 mmHg 73%
    15:00 +22°C° 0.8 mm 1 mps 615 mmHg 79%
    16:00 +18°C° 1.1 mm 0 mps 615 mmHg 84%
    17:00 +16°C° 1.1 mm 0 mps 614 mmHg 89%
    18:00 +15°C° 1.1 mm 0 mps 614 mmHg 94%
    19:00 +14°C° 0.6 mm 0 mps 614 mmHg 94%
    20:00 +14°C° 0.6 mm 0 mps 615 mmHg 94%
    21:00 +14°C° 0.6 mm 0 mps 615 mmHg 93%
    22:00 +14°C° 0.2 mm 0 mps 615 mmHg 93%
    23:00 +14°C° 0.2 mm 0 mps 615 mmHg 93%

    Day after tomorrow, 25 October, Friday

    Time Temperature Precipitation Wind Pressure Humidity
    00:00 +13°C° 0.2 mm 0 mps 615 mmHg 93%
    01:00 +13°C° 0.1 mm 0 mps 614 mmHg 93%
    02:00 +14°C° 0.1 mm 1 mps 614 mmHg 93%
    03:00 +14°C° 0.1 mm 1 mps 614 mmHg 93%
    04:00 +14°C° 0 mm 1 mps 614 mmHg 93%
    05:00 +14°C° 0 mm 1 mps 614 mmHg 93%
    06:00 +14°C° 0 mm 1 mps 614 mmHg 93%
    07:00 +15°C° 0 mm 0 mps 616 mmHg 85%
    08:00 +18°C° 0 mm 0 mps 617 mmHg 77%
    09:00 +20°C° 0 mm 0 mps 618 mmHg 69%
    10:00 +22°C° 0.6 mm 1 mps 618 mmHg 71%
    11:00 +23°C° 0.6 mm 1 mps 617 mmHg 73%
    12:00 +23°C° 0.6 mm 1 mps 617 mmHg 74%
    13:00 +22°C° 1.9 mm 1 mps 616 mmHg 77%
    14:00 +20°C° 1.9 mm 0 mps 616 mmHg 81%
    15:00 +19°C° 1.9 mm 0 mps 615 mmHg 84%
    16:00 +18°C° 1.7 mm 0 mps 615 mmHg 87%
    17:00 +16°C° 1.7 mm 0 mps 614 mmHg 91%
    18:00 +15°C° 1.7 mm 0 mps 614 mmHg 94%
    19:00 +14°C° 1.1 mm 0 mps 614 mmHg 94%
    20:00 +14°C° 1.1 mm 0 mps 615 mmHg 94%
    21:00 +14°C° 1.1 mm 0 mps 615 mmHg 94%
    22:00 +14°C° 0.4 mm 0 mps 615 mmHg 94%
    23:00 +13°C° 0.4 mm 0 mps 615 mmHg 94%

    26 October, Saturday

    Time Temperature Precipitation Wind Pressure Humidity
    00:00 +13°C° 0.4 mm 0 mps 615 mmHg 94%
    01:00 +13°C° 0.1 mm 0 mps 614 mmHg 94%
    02:00 +13°C° 0.1 mm 0 mps 614 mmHg 94%
    03:00 +13°C° 0.1 mm 0 mps 614 mmHg 94%
    04:00 +13°C° 0 mm 0 mps 614 mmHg 94%
    05:00 +13°C° 0 mm 0 mps 614 mmHg 93%
    06:00 +14°C° 0 mm 1 mps 614 mmHg 93%
    07:00 +15°C° 0 mm 0 mps 615 mmHg 86%
    08:00 +18°C° 0 mm 0 mps 617 mmHg 79%
    09:00 +20°C° 0 mm 0 mps 618 mmHg 73%
    10:00 +20°C° 0.6 mm 0 mps 617 mmHg 74%
    11:00 +22°C° 0.6 mm 1 mps 617 mmHg 74%
    12:00 +23°C° 0.6 mm 1 mps 617 mmHg 75%
    13:00 +22°C° 1.6 mm 1 mps 616 mmHg 78%
    14:00 +22°C° 1.6 mm 1 mps 615 mmHg 81%
    15:00 +19°C° 1.6 mm 0 mps 615 mmHg 84%
    16:00 +18°C° 1.9 mm 0 mps 615 mmHg 88%
    17:00 +17°C° 1.9 mm 0 mps 614 mmHg 92%
    18:00 +15°C° 1.9 mm 0 mps 614 mmHg 96%
    19:00 +15°C° 1.9 mm 0 mps 615 mmHg 95%
    20:00 +15°C° 1.9 mm 0 mps 615 mmHg 95%
    21:00 +14°C° 1.9 mm 0 mps 615 mmHg 95%
    22:00 +15°C° 1.2 mm 1 mps 615 mmHg 95%
    23:00 +15°C° 1.2 mm 1 mps 615 mmHg 95%

    27 October, Sunday

    Time Temperature Precipitation Wind Pressure Humidity
    00:00 +15°C° 1.2 mm 1 mps 615 mmHg 96%
    01:00 +15°C° 0.3 mm 1 mps 615 mmHg 96%
    02:00 +15°C° 0.3 mm 1 mps 615 mmHg 96%
    03:00 +15°C° 0.3 mm 1 mps 614 mmHg 96%
    04:00 +14°C° 0 mm 1 mps 615 mmHg 96%
    05:00 +14°C° 0 mm 1 mps 615 mmHg 97%
    06:00 +14°C° 0 mm 1 mps 615 mmHg 97%
    07:00 +16°C° 0 mm 1 mps 616 mmHg 93%
    08:00 +18°C° 0 mm 1 mps 616 mmHg 88%
    09:00 +20°C° 0 mm 1 mps 617 mmHg 84%
    10:00 +20°C° 0.3 mm 1 mps 617 mmHg 81%
    11:00 +21°C° 0.3 mm 1 mps 617 mmHg 77%
    12:00 +22°C° 0.3 mm 1 mps 617 mmHg 74%
    13:00 +22°C° 1.3 mm 1 mps 616 mmHg 78%
    14:00 +21°C° 1.3 mm 1 mps 616 mmHg 82%
    15:00 +21°C° 1.3 mm 1 mps 615 mmHg 86%
    16:00 +20°C° 0.7 mm 1 mps 615 mmHg 89%
    17:00 +18°C° 0.7 mm 1 mps 615 mmHg 93%
    18:00 +16°C° 0.7 mm 1 mps 615 mmHg 97%
    19:00 +16°C° 0.4 mm 1 mps 615 mmHg 97%
    20:00 +15°C° 0.4 mm 1 mps 615 mmHg 97%
    21:00 +15°C° 0.4 mm 1 mps 616 mmHg 98%
    22:00 +15°C° 0.1 mm 1 mps 616 mmHg 97%
    23:00 +15°C° 0.1 mm 1 mps 616 mmHg 97%

    28 October, Monday

    Time Temperature Precipitation Wind Pressure Humidity
    00:00 +15°C° 0.1 mm 1 mps 616 mmHg 97%
    01:00 +15°C° 0 mm 1 mps 615 mmHg 97%
    02:00 +15°C° 0 mm 1 mps 615 mmHg 97%
    03:00 +15°C° 0 mm 2 mps 615 mmHg 97%
    04:00 +15°C° 0 mm 2 mps 615 mmHg 97%
    05:00 +14°C° 0 mm 2 mps 615 mmHg 97%
    06:00 +14°C° 0 mm 2 mps 615 mmHg 96%
    07:00 +16°C° 0 mm 2 mps 616 mmHg 92%
    08:00 +17°C° 0 mm 2 mps 617 mmHg 88%
    09:00 +18°C° 0 mm 2 mps 618 mmHg 84%
    10:00 +19°C° 0.1 mm 2 mps 618 mmHg 79%
    11:00 +21°C° 0.1 mm 2 mps 618 mmHg 73%
    12:00 +23°C° 0.1 mm 2 mps 618 mmHg 67%
    13:00 +23°C° 0.5 mm 2 mps 617 mmHg 69%
    14:00 +22°C° 0.5 mm 1 mps 616 mmHg 71%
    15:00 +22°C° 0.5 mm 1 mps 616 mmHg 73%
    16:00 +20°C° 0.7 mm 1 mps 616 mmHg 81%
    17:00 +19°C° 0.7 mm 1 mps 615 mmHg 89%
    18:00 +16°C° 0.7 mm 1 mps 615 mmHg 96%
    19:00 +16°C° 0.6 mm 1 mps 616 mmHg 97%
    20:00 +15°C° 0.6 mm 2 mps 616 mmHg 97%
    21:00 +15°C° 0.6 mm 2 mps 616 mmHg 97%
    22:00 +15°C° 0.1 mm 2 mps 616 mmHg 97%
    23:00 +15°C° 0.1 mm 2 mps 616 mmHg 96%

    29 October, Tuesday

    Time Temperature Precipitation Wind Pressure Humidity
    00:00 +15°C° 0.1 mm 2 mps 616 mmHg 96%
    01:00 +15°C° 0 mm 2 mps 616 mmHg 96%
    02:00 +14°C° 0 mm 2 mps 615 mmHg 96%
    03:00 +14°C° 0 mm 2 mps 615 mmHg 96%
    04:00 +14°C° 0 mm 2 mps 615 mmHg 96%
    05:00 +14°C° 0 mm 2 mps 615 mmHg 96%
    06:00 +14°C° 0 mm 2 mps 615 mmHg 96%
    07:00 +15°C° 0 mm 2 mps 616 mmHg 91%
    08:00 +16°C° 0 mm 2 mps 617 mmHg 87%
    09:00 +18°C° 0 mm 2 mps 618 mmHg 83%
    10:00 +19°C° 0.2 mm 2 mps 618 mmHg 78%
    11:00 +20°C° 0.2 mm 2 mps 618 mmHg 74%
    12:00 +21°C° 0.2 mm 2 mps 618 mmHg 69%
    13:00 +21°C° 1.1 mm 2 mps 617 mmHg 75%
    14:00 +20°C° 1.1 mm 2 mps 616 mmHg 81%
    15:00 +19°C° 1.1 mm 2 mps 616 mmHg 87%
    16:00 +18°C° 0.9 mm 2 mps 615 mmHg 90%
    17:00 +17°C° 0.9 mm 2 mps 615 mmHg 93%
    18:00 +15°C° 0.9 mm 2 mps 615 mmHg 97%
    Show more